Regional Weather Roundup
Issued by NWS Sioux Falls, SD

Home | Current Version | Previous Version | Text Only | Print | Product List | Glossary On
Versions: 1 2 3 4 5 6 7 8 9 10 11 12 13 14 15 16 17 18 19 20 21 22 23 24 25 26 27 28 29 30 31 32 33 34 35 36 37 38 39 40 41 42 43 44 45 46 47 48 49 50
000
ASUS43 KFSD 162210
RWRFSD

WEATHER ROUNDUP FOR SE SOUTH DAKOTA/SW MINNESOTA/NW IOWA
NATIONAL WEATHER SERVICE SIOUX FALLS SD
500 PM CDT MON OCT 16 2017

NOTE: "FAIR" INDICATES FEW OR NO CLOUDS BELOW 12,000 FEET WITH NO
SIGNIFICANT WEATHER AND OR OBSTRUCTIONS TO VISIBILITY.


SDZ038>040-050-052>070-162300-
SOUTHEAST SOUTH DAKOTA

CITY           SKY/WX    TMP DP  RH WIND       PRES   REMARKS
BROOKINGS      SUNNY     70  38  31 SW12      30.00S
CHAMBERLAIN    SUNNY     73  40  30 CALM      30.01R
HURON          SUNNY     68  41  37 W6        29.99F
MADISON        FAIR      68  39  34 SW9       30.00S
MITCHELL       SUNNY     73  39  29 W8        30.00S
SIOUX FALLS    CLOUDY    74  38  27 SW10G20   30.00F
WINNER         FAIR      75  41  29 NW8       30.02S
YANKTON        SUNNY     76  37  24 SW13G21   30.01S
$$

MNZ071-072-080-081-089-090-097-098-162300-
SOUTHWEST MINNESOTA

CITY           SKY/WX    TMP DP  RH WIND       PRES   REMARKS
FAIRMONT       SUNNY     69  36  29 SW20      30.04
JACKSON        SUNNY     68  32  26 SW16G22   30.05F
LUVERNE        SUNNY     70  32  24 SW16G22   30.02F
MARSHALL       SUNNY     71  37  28 SW15      29.98F
MONTEVIDEO     SUNNY     73  36  25 W9        29.98S
PIPESTONE      SUNNY     72  36  26 SW15      30.01S
REDWOOD FALLS  SUNNY     70  34  26 SW12      29.99F
TRACY          SUNNY     70  38  31 SW16      30.00F
WORTHINGTON    SUNNY     70  36  28 SW15G24   30.04F
$$

IAZ001>003-012>014-020>022-031-032-NEZ013-014-SDZ071-162300-
NORTHWEST IOWA

CITY           SKY/WX    TMP DP  RH WIND       PRES   REMARKS
CHEROKEE       SUNNY     69  38  31 SW13G20   30.07F
DENISON        SUNNY     70  36  28 S17G29    30.11F
ESTHERVILLE    SUNNY     68  34  28 S16G23    30.05F
LE MARS        SUNNY     75  36  23 S15G21    30.04F
ORANGE CITY    SUNNY     73  39  29 S14       30.05F
SHELDON        SUNNY     72  36  26 S14G22    30.02F
SIOUX CITY     SUNNY     75  37  25 S15       30.06F
SPENCER        SUNNY     71  34  25 SW17G25   30.06F
STORM LAKE     SUNNY     70  34  26 SW16G25   30.08F
$$

ABBREVIATIONS USED IN REMARKS
   TC - TEMPERATURE IN CELSIUS
  WCI - WIND CHILL INDEX
   HX - HEAT INDEX
  VSB - VISIBILITY





USA.gov is the U.S. government's official web portal to all federal, state and local government web resources and services.